Flag for Brazil Weather past 2 weeks in Teresina, Piauí, Brazil

Now
88 °F

Scattered clouds.


Feels Like: 93 °F
Forecast: 75 / 87 °F
Wind: 5 mph from Northeast

Location: Teresina Aeroporto

Current Time: Mar 1, 2015 at 4:21:19 PM

Latest Report: Mar 1, 2015 at 4:00 PM


Visibility: N/A

Pressure: 29.77 "Hg

Humidity: 55%

Dew point: 70 °F

Location of TeresinaLocation

Historic Weather in Teresina — Graph

°F

Teresina temperature yesterday

Maximum temperature yesterday: 88 °F (at 12:00 PM)
Minimum temperature yesterday: 75 °F (at 4:00 AM)
Average temperature yesterday: 81 °F

Past Weeks' High & Low Weather Summary

 TemperatureHumidityPressure
High93 °F (Feb 14, 3:00 PM)100% (Feb 15, 4:00 AM)29.98 "Hg (Feb 15, 4:00 AM)
Low72 °F (Feb 18, 2:00 AM)44% (Feb 15, 4:00 PM)29.71 "Hg (Feb 17, 4:00 PM)
Average80 °F83%29.86 "Hg
* Reported Feb 14 3:00 PM — Mar 1 3:00 PM, Teresina, Weather by CustomWeather, © 2015

Note: Actual official high and low records may vary slightly from our data, if they occured in-between our weather recording intervals... More about our weather records

Advertising

Teresina weather history for previous 24 hours

 ConditionsComfort  
Time TempWeatherWind HumidityBarometerVisibility
3:00 PM
Sun, Mar 1
90 °FScattered clouds.5 mph52%29.80 "HgN/A
2:00 PM90 °FScattered clouds.3 mph52%29.83 "HgN/A
1:00 PM86 °FBroken clouds.5 mph66%29.89 "HgN/A
12:00 PM84 °FBroken clouds.5 mph70%29.92 "HgN/A
11:00 AM81 °FBroken clouds.5 mph79%29.95 "HgN/A
10:00 AM79 °FBroken clouds.5 mph79%29.95 "HgN/A
9:00 AM79 °FBroken clouds.3 mph84%29.95 "HgN/A
8:00 AM77 °FBroken clouds.5 mph94%29.92 "HgN/A
7:00 AM75 °FPartly sunny.3 mph100%29.89 "HgN/A
6:00 AM73 °FScattered clouds.5 mph100%29.86 "HgN/A
5:00 AM75 °FClear.No wind94%29.86 "Hg10 mi
4:00 AM75 °FClear.No wind100%29.83 "Hg10 mi
3:00 AM75 °FClear.No wind100%29.83 "Hg10 mi
2:00 AM75 °FPassing clouds.No wind100%29.83 "HgN/A
1:00 AM75 °FPassing clouds.3 mph100%29.86 "HgN/A
12:00 AM75 °FPassing clouds.5 mph94%29.89 "HgN/A
11:00 PM
Sat, Feb 28
75 °FPassing clouds.7 mph94%29.95 "HgN/A
10:00 PM77 °FClear.2 mph94%29.92 "Hg10 mi
9:00 PM77 °FPassing clouds.6 mph83%29.89 "HgN/A
8:00 PM82 °FPartly cloudy.8 mph79%29.89 "HgN/A
7:00 PM84 °FPassing clouds.5 mph70%29.83 "HgN/A
6:00 PM86 °FPassing clouds.7 mph66%29.80 "HgN/A
5:00 PM88 °FPassing clouds.6 mph62%29.80 "HgN/A
4:00 PM88 °FPassing clouds.5 mph59%29.77 "HgN/A
Weather by CustomWeather, © 2015

See weather overviewHow to use our weather pages